Location: Huntsville
(41.2590°N, 111.7678°W)
Time: 01:41:46
(UTC+00:00)

Courier 1B Rocket - Visible Passes

Search period start: 13 June 2021 00:00
Search period end: 23 June 2021 00:00
Orbit: 920 x 1202 km, 28.2° (Epoch: 12 June)

Date Brightness Start Highest point End Pass type
(mag) Time Alt. Az. Time Alt. Az. Time Alt. Az.
13 Jun 6.5 05:01:34 10° SSW 05:03:38 16° S 05:03:38 16° S visible
14 Jun 6.4 04:01:33 10° SSW 04:05:04 15° SSE 04:07:06 13° SE visible
14 Jun 6.8 05:52:39 10° SW 05:53:31 13° SW 05:53:31 13° SW visible
15 Jun 6.0 04:52:04 10° SW 04:56:45 22° S 04:56:47 22° S visible
16 Jun 6.2 03:51:38 10° SSW 03:56:02 19° SSE 03:59:52 11° SE visible
16 Jun 6.3 05:43:34 10° SW 05:46:15 20° SSW 05:46:15 20° SSW visible
17 Jun 5.9 04:42:47 10° SW 04:47:47 24° S 04:49:10 22° SSE visible
18 Jun 6.1 03:42:06 10° SW 03:47:02 23° S 03:51:48 10° ESE visible
18 Jun 6.1 05:34:38 10° WSW 05:38:21 22° SSW 05:38:21 22° SSW visible
19 Jun 6.0 04:33:40 10° SW 04:38:48 25° S 04:41:03 20° SSE visible
19 Jun 7.0 06:27:08 10° WSW 06:27:25 11° SW 06:27:25 11° SW visible
20 Jun 6.1 03:32:46 10° SW 03:38:02 25° S 03:43:05 10° SE visible
20 Jun 6.2 05:25:50 10° WSW 05:30:04 21° SSW 05:30:04 21° SSW visible
21 Jun 6.1 04:24:40 10° WSW 04:29:49 24° S 04:32:40 18° SSE visible
21 Jun 7.0 06:18:55 10° SW 06:19:01 10° SW 06:19:01 10° SW visible
22 Jun 6.4 05:17:13 10° WSW 05:21:31 19° SSW 05:21:35 19° SSW visible
